Location: Linz
(48.3300°N, 14.3000°E)
Time: 10:27:22
(UTC+01:00)

N. Korean satellite - Pass Details

Date: 14 November 2017
Orbit: 460 x 514 km, 97.2° (Epoch: 24 November)

Event Time Altitude Azimuth Distance (km) Brightness Sun altitude
Rises 18:30:23 0° 188° (S) 2,479 10.3 -20.7°
Reaches altitude 10° 18:32:33 10° 198° (SSW) 1,614 9.5 -21.1°
Maximum altitude 18:35:42 32° 264° (W) 830 8.4 -21.6°
Drops below altitude 10° 18:38:54 10° 329° (NNW) 1,647 9.6 -22.1°
Sets 18:41:08 0° 339° (NNW) 2,539 10.4 -22.5°
